Home   Weather   Rybnik   Past weeks

Flag for Poland Past Weather in Rybnik, Poland — Yesterday and Last 2 Weeks

Now
23 °F

Ice fog.


Feels Like: 13 °F
Forecast: 14 / 21 °F
Wind: 9 mph from East

Location: Katowice Airport

Current Time: Jan 18, 2017 at 2:43:47 am

Latest Report: Jan 18, 2017 at 2:00 am


Visibility: 3 mi

Pressure: 30.60 "Hg

Humidity: 93%

Dew Point: 21 °F

Location of RybnikLocation

Past Weather in Rybnik — Graph

°F

Rybnik Temperature Yesterday

Maximum temperature yesterday: 28 °F (at 11:30 am)
Minimum temperature yesterday: 23 °F (at 12:00 am)
Average temperature yesterday: 26 °F

High & Low Weather Summary for the Past Weeks

 TemperatureHumidityPressure
High39 °F (Jan 13, 11:30 am)100% (Jan 3, 5:00 pm)30.60 "Hg (Jan 3, 5:00 pm)
Low-20 °F (Jan 7, 7:00 am)46% (Jan 9, 2:00 pm)29.30 "Hg (Jan 13, 2:00 pm)
Average19 °F82%30.00 "Hg
* Reported Jan 3 1:00 am — Jan 18 1:30 am, Rybnik, Weather by CustomWeather, © 2017

Note: Actual official high and low records may vary slightly from our data, if they occured in-between our weather recording intervals... More about our weather records

Advertising

Rybnik Weather History for the Previous 24 Hours

Scroll right to see more
 ConditionsComfort  
Time TempWeatherWind HumidityBarometerVisibility
1:30 am
Wed, Jan 18
23 °FIce fog.8 mph93%30.60 "Hg2 mi
1:00 am25 °FIce fog.8 mph86%30.60 "Hg2 mi
12:30 am25 °FIce fog.9 mph93%30.57 "Hg3 mi
12:00 am25 °FIce fog.7 mph93%30.57 "Hg3 mi
11:30 pm
Tue, Jan 17
25 °FIce fog.6 mph93%30.57 "Hg2 mi
11:00 pm27 °FIce fog.6 mph86%30.57 "Hg3 mi
10:30 pm25 °FIce fog.3 mph93%30.57 "Hg3 mi
10:00 pm25 °FIce fog.5 mph93%30.57 "Hg2 mi
9:30 pm25 °FIce fog.6 mph93%30.57 "Hg2 mi
9:00 pm25 °FIce fog.5 mph93%30.54 "Hg2 mi
8:30 pm23 °FIce fog.6 mph93%30.54 "Hg2 mi
8:00 pm23 °FIce fog.6 mph93%30.54 "Hg2 mi
7:30 pm25 °FIce fog.5 mph86%30.54 "Hg2 mi
7:00 pm25 °FIce fog.3 mph86%30.54 "Hg2 mi
6:30 pm25 °FIce fog.3 mph86%30.51 "Hg3 mi
6:00 pm27 °FOvercast.3 mph86%30.51 "Hg4 mi
5:30 pm27 °FPartly cloudy.5 mph86%30.51 "Hg4 mi
5:00 pm27 °FMostly cloudy.5 mph86%30.51 "Hg6 mi
4:30 pm27 °FOvercast.5 mph86%30.48 "Hg5 mi
4:00 pm28 °FMostly cloudy.6 mph80%30.48 "Hg5 mi
3:30 pm28 °FOvercast.7 mph80%30.48 "HgN/A
3:00 pm28 °FOvercast.8 mph80%30.48 "HgN/A
2:30 pm28 °FMostly cloudy.8 mph80%30.48 "HgN/A
2:00 pm28 °FOvercast.8 mph80%30.48 "HgN/A
1:30 pm28 °FOvercast.8 mph80%30.45 "HgN/A
1:00 pm28 °FOvercast.9 mph80%30.45 "HgN/A
12:30 pm28 °FMostly cloudy.9 mph80%30.45 "HgN/A
12:00 pm28 °FLow clouds.9 mph86%30.45 "Hg5 mi
11:30 am28 °FPartly sunny.8 mph86%30.45 "Hg4 mi
11:00 am27 °FIce fog.8 mph93%30.45 "Hg3 mi
10:30 am27 °FIce fog.9 mph93%30.45 "Hg3 mi
10:00 am27 °FIce fog.7 mph93%30.42 "Hg3 mi
9:30 am27 °FIce fog.7 mph86%30.42 "Hg3 mi
9:00 am27 °FBroken clouds.8 mph93%30.42 "Hg4 mi
8:30 am27 °FLow clouds.6 mph93%30.42 "Hg4 mi
8:00 am27 °FIce fog.6 mph93%30.39 "Hg2 mi
7:30 am27 °FIce fog.9 mph93%30.39 "Hg1 mi
7:00 am25 °FIce fog.3 mph100%30.39 "Hg2 mi
6:30 am25 °FIce fog.2 mph100%30.36 "Hg2 mi
6:00 am25 °FIce fog.3 mph100%30.36 "Hg2 mi
5:30 am25 °FIce fog.5 mph100%30.36 "Hg2 mi
5:00 am25 °FIce fog.5 mph100%30.36 "Hg2 mi
4:30 am25 °FIce fog.5 mph100%30.33 "Hg1 mi
4:00 am25 °FIce fog.2 mph100%30.33 "Hg1 mi
3:30 am25 °FIce fog.1 mph93%30.33 "Hg0 mi
3:00 am25 °FIce fog.No wind93%30.33 "Hg0 mi
2:30 am25 °FIce fog.1 mph93%30.33 "Hg0 mi
2:00 am25 °FIce fog.2 mph93%30.30 "Hg1 mi
Weather by CustomWeather, © 2017

See weather overviewHow to use our weather pages